Location: Unspecified
(0.0000°N, 0.0000°E)
Time: 23:29:42
(UTC+02:00)

Cosmos 1908 Rocket - Visible Passes

Search period start: 17 August 2017 00:00
Search period end: 27 August 2017 00:00
Orbit: 605 x 634 km, 82.5° (Epoch: 16 August)

Date Brightness Start Highest point End Pass type
(mag) Time Alt. Az. Time Alt. Az. Time Alt. Az.
17 Aug 3.6 20:26:43 10° S 20:31:06 58° E 20:35:25 10° NNE visible
18 Aug 4.3 20:44:08 10° SSW 20:48:30 58° W 20:52:49 10° N visible
19 Aug 6.1 21:02:15 10° SW 21:05:53 25° W 21:09:29 10° NNW visible
20 Aug 6.7 07:33:52 10° NE 07:36:51 18° E 07:39:52 10° SE visible
20 Aug 7.1 21:22:07 10° WSW 21:23:16 11° W 21:24:25 10° WNW visible
23 Aug 6.4 20:34:26 10° SW 20:37:55 23° W 20:41:21 10° NW visible
24 Aug 6.6 07:05:41 10° NE 07:08:52 20° E 07:12:05 10° SE visible
25 Aug 4.9 07:22:05 10° NNE 07:26:15 45° E 07:30:30 10° SSE visible
